Weather Roundup
Issued by NWS Springfield, MO

Home | Current Version | Previous Version | Text Only | Print | Product List | Glossary Off
Versions: 1 2 3 4 5 6 7 8 9 10 11 12 13 14 15 16 17 18 19 20 21 22 23 24 25 26 27 28 29 30 31 32 33 34 35 36 37 38 39 40 41 42 43 44 45 46 47 48 49 50

000
NZUS99 KSGF 301307
HRRSGF

HOURLY WEATHER
NATIONAL WEATHER SERVICE SPRINGFIELD MO
800 AM CDT SUN APR 30 2017

......SGF CWA......

CITY           SKY/WX    TMP DP  RH WIND       PRES   REMARKS
SPRINGFIELD    LGT RAIN  64  63  96 SE14      29.59R FOG
JOPLIN         PTSUNNY   59  58  96 SW13      29.52S
ROLLA          LGT RAIN  62  32  32 E15G21    29.65S
BRANSON        CLOUDY    63  63 100 SE7       29.63S

......SURROUNDING SGF CWA......

CITY           SKY/WX    TMP DP  RH WIND       PRES   REMARKS
CHANUTE        CLOUDY    53  51  93 S20G31    29.52R
PARSONS        CLOUDY    52  50  93 S14G20    29.54R
COFFEYVILLE    CLOUDY    52  49  89 S16       29.54R
EMPORIA        CLOUDY    43  43 100 NE9G20    29.50R
GROVE OK       CLOUDY    54  54 100 S22G30    29.60R
ROGERS AR      LGT RAIN  58  57  97 S8        29.57S
SILOAM SPRINGS CLOUDY    54  48  82 SW20G28   29.61R
HARRISON AR    CLOUDY    62  62 100 SE9       29.62F
NEAR YELLVILLE CLOUDY   N/A N/A N/A CALM      29.61S

......KANSAS AND MISSOURI......

CITY           SKY/WX    TMP DP  RH WIND       PRES   REMARKS
KANSAS CTY INT FOG       44  43  96 NE20      29.59F VSB 1
DOWNTOWN KC    LGT RAIN N/A N/A N/A NE12      29.59F
COLUMBIA       LGT RAIN  56  56 100 SE8       29.65R
SEDALIA        CLOUDY    60  60 100 SE16      29.59F
ST JOSEPH      RAIN      42  42 100 NE20      29.65R FOG
ST LOUIS       LGT RAIN  60  56  86 SE18G25   29.71F
SPIRIT OF STL  LGT RAIN  59  59 100 SE14G23   29.67F
KIRKSVILLE     CLOUDY    45  28  51 NE15      29.71R
WICHITA        CLOUDY    45  45 100 SE8       29.49R
TOPEKA         CLOUDY    44  43  96 NE23G32   29.49F FOG
OLATHE         LGT RAIN  44  44 100 NE16G23   29.53F FOG

......TENNESSEE......

CITY           SKY/WX    TMP DP  RH WIND       PRES   REMARKS
MEMPHIS        LGT RAIN  73  70  90 SE12      29.76F
NASHVILLE      CLOUDY    73  66  78 SE5       29.97R

......ARKANSAS.......

CITY           SKY/WX    TMP DP  RH WIND       PRES   REMARKS
FAYETTEVILLE   CLOUDY    56  55  97 SW16G23   29.61R
FT SMITH       LGT RAIN  56  52  86 SW10      29.67R
LITTLE ROCK    TSTM      64  64 100 SW12      29.69R

......OKLAHOMA.......

CITY           SKY/WX    TMP DP  RH WIND       PRES   REMARKS
TULSA          CLOUDY    51  47  86 S14       29.58F
PONCA CITY     CLOUDY    47  43  86 SW12      29.53R
MCALESTER      CLOUDY    51  44  77 SW14      29.70R
OKLAHOMA CITY  DRIZZLE   42  39  89 SW20G25   29.59R

......IOWA............

CITY           SKY/WX    TMP DP  RH WIND       PRES   REMARKS
DES MOINES     DRIZZLE   42  40  92 NE13G28   29.80R FOG
QUAD CITIES    CLOUDY    44  41  89 VRB6G21   29.81R

......ILLINOIS........

CITY           SKY/WX    TMP DP  RH WIND       PRES   REMARKS
QUINCY         CLOUDY    48  48 100 N9        29.72R FOG
CHICAGO        LGT RAIN  43  41  93 NE13      29.84F FOG



USA.gov is the U.S. government's official web portal to all federal, state and local government web resources and services.